When you browse on this site, cookies collect data to enhance your experience and personalize the content and advertising you see.
Visit our Privacy Policy to learn more. By continuing to use the site, you agree to this use of cookies and data.
  • En España
  • Lista de países
  • Para 7 días
  • Temperatura del agua
  • El tiempo en el mapa
  • Informadores
  • user-avatar
    Iniciar sesión

    Tiempo cada hora Pombas

    Hoy, 20 Enero, Lunes

    Tiempo Temperatura Precipitaciones Viento Presión Humedad
    00:00 +20°C° 0 mm 3 mps 744 mmHg 71%
    01:00 +20°C° 0 mm 3 mps 743 mmHg 70%
    02:00 +20°C° 0 mm 3 mps 743 mmHg 70%
    03:00 +20°C° 0 mm 3 mps 742 mmHg 70%
    04:00 +20°C° 0 mm 3 mps 742 mmHg 64%
    05:00 +20°C° 0 mm 3 mps 742 mmHg 63%
    06:00 +21°C° 0 mm 3 mps 743 mmHg 63%
    07:00 +21°C° 0 mm 3 mps 743 mmHg 62%
    08:00 +22°C° 0 mm 3 mps 743 mmHg 58%
    09:00 +25°C° 0 mm 3 mps 743 mmHg 54%
    10:00 +26°C° 0 mm 4 mps 743 mmHg 50%
    11:00 +25°C° 0 mm 4 mps 743 mmHg 52%
    12:00 +25°C° 0 mm 4 mps 742 mmHg 55%
    13:00 +25°C° 0 mm 4 mps 742 mmHg 58%
    14:00 +25°C° 0 mm 4 mps 742 mmHg 59%
    15:00 +25°C° 0 mm 4 mps 742 mmHg 61%
    16:00 +23°C° 0 mm 4 mps 742 mmHg 63%
    17:00 +23°C° 0 mm 4 mps 742 mmHg 67%
    18:00 +22°C° 0 mm 4 mps 743 mmHg 72%
    19:00 +21°C° 0 mm 3 mps 743 mmHg 77%
    20:00 +21°C° 0 mm 3 mps 743 mmHg 75%
    21:00 +20°C° 0 mm 3 mps 743 mmHg 73%
    22:00 +20°C° 0 mm 3 mps 743 mmHg 72%
    23:00 +20°C° 0 mm 3 mps 743 mmHg 70%

    Mañana, 21 Enero, Martes

    Tiempo Temperatura Precipitaciones Viento Presión Humedad
    00:00 +20°C° 0 mm 3 mps 743 mmHg 69%
    01:00 +19°C° 0 mm 3 mps 743 mmHg 67%
    02:00 +19°C° 0 mm 3 mps 742 mmHg 68%
    03:00 +19°C° 0 mm 3 mps 742 mmHg 70%
    04:00 +19°C° 0 mm 3 mps 742 mmHg 71%
    05:00 +19°C° 0 mm 3 mps 742 mmHg 71%
    06:00 +20°C° 0 mm 3 mps 742 mmHg 72%
    07:00 +20°C° 0 mm 2 mps 743 mmHg 72%
    08:00 +22°C° 0 mm 3 mps 743 mmHg 65%
    09:00 +24°C° 0 mm 3 mps 743 mmHg 57%
    10:00 +26°C° 0 mm 3 mps 744 mmHg 50%
    11:00 +26°C° 0 mm 4 mps 743 mmHg 52%
    12:00 +26°C° 0 mm 4 mps 743 mmHg 54%
    13:00 +26°C° 0 mm 4 mps 742 mmHg 56%
    14:00 +25°C° 0 mm 4 mps 742 mmHg 60%
    15:00 +23°C° 0 mm 4 mps 742 mmHg 64%
    16:00 +22°C° 0 mm 4 mps 742 mmHg 69%
    17:00 +22°C° 0 mm 4 mps 743 mmHg 73%
    18:00 +21°C° 0 mm 4 mps 743 mmHg 77%
    19:00 +20°C° 0 mm 4 mps 743 mmHg 81%
    20:00 +20°C° 0 mm 4 mps 743 mmHg 79%
    21:00 +20°C° 0 mm 4 mps 743 mmHg 77%
    22:00 +20°C° 0 mm 4 mps 743 mmHg 75%
    23:00 +19°C° 0 mm 4 mps 743 mmHg 74%

    Pasado mañana, 22 Enero, Miércoles

    Tiempo Temperatura Precipitaciones Viento Presión Humedad
    00:00 +19°C° 0 mm 4 mps 743 mmHg 74%
    01:00 +19°C° 0 mm 4 mps 743 mmHg 74%
    02:00 +19°C° 0 mm 4 mps 743 mmHg 75%
    03:00 +18°C° 0 mm 4 mps 743 mmHg 76%
    04:00 +18°C° 0 mm 3 mps 743 mmHg 77%
    05:00 +19°C° 0 mm 3 mps 743 mmHg 74%
    06:00 +20°C° 0 mm 3 mps 744 mmHg 70%
    07:00 +21°C° 0 mm 3 mps 744 mmHg 67%
    08:00 +22°C° 0 mm 4 mps 744 mmHg 63%
    09:00 +23°C° 0 mm 4 mps 744 mmHg 59%
    10:00 +25°C° 0 mm 5 mps 745 mmHg 55%
    11:00 +26°C° 0 mm 5 mps 744 mmHg 54%
    12:00 +26°C° 0 mm 5 mps 744 mmHg 53%
    13:00 +26°C° 0 mm 5 mps 743 mmHg 52%
    14:00 +26°C° 0 mm 5 mps 743 mmHg 55%
    15:00 +25°C° 0 mm 5 mps 743 mmHg 58%
    16:00 +25°C° 0 mm 5 mps 743 mmHg 61%
    17:00 +22°C° 0 mm 5 mps 743 mmHg 67%
    18:00 +21°C° 0 mm 5 mps 744 mmHg 74%
    19:00 +20°C° 0 mm 4 mps 744 mmHg 80%
    20:00 +20°C° 0 mm 5 mps 744 mmHg 79%
    21:00 +20°C° 0 mm 5 mps 745 mmHg 78%
    22:00 +20°C° 0 mm 5 mps 745 mmHg 78%
    23:00 +20°C° 0 mm 5 mps 745 mmHg 77%

    23 Enero, Jueves

    Tiempo Temperatura Precipitaciones Viento Presión Humedad
    00:00 +20°C° 0 mm 5 mps 745 mmHg 77%
    01:00 +20°C° 0 mm 4 mps 744 mmHg 77%
    02:00 +19°C° 0 mm 4 mps 744 mmHg 77%
    03:00 +19°C° 0 mm 4 mps 744 mmHg 78%
    04:00 +19°C° 0 mm 4 mps 743 mmHg 78%
    05:00 +19°C° 0 mm 4 mps 744 mmHg 77%
    06:00 +20°C° 0 mm 5 mps 744 mmHg 75%
    07:00 +20°C° 0 mm 5 mps 744 mmHg 74%
    08:00 +22°C° 0 mm 5 mps 745 mmHg 69%
    09:00 +23°C° 0 mm 5 mps 745 mmHg 64%
    10:00 +25°C° 0 mm 5 mps 745 mmHg 60%
    11:00 +25°C° 0 mm 5 mps 745 mmHg 61%
    12:00 +25°C° 0 mm 5 mps 745 mmHg 62%
    13:00 +25°C° 0 mm 5 mps 744 mmHg 63%
    14:00 +25°C° 0 mm 5 mps 744 mmHg 64%
    15:00 +25°C° 0 mm 5 mps 744 mmHg 65%
    16:00 +23°C° 0 mm 5 mps 744 mmHg 67%
    17:00 +23°C° 0 mm 5 mps 744 mmHg 72%
    18:00 +22°C° 0 mm 5 mps 744 mmHg 78%
    19:00 +21°C° 0 mm 5 mps 744 mmHg 83%
    20:00 +20°C° 0 mm 5 mps 745 mmHg 84%
    21:00 +20°C° 0 mm 5 mps 745 mmHg 84%
    22:00 +20°C° 0 mm 5 mps 745 mmHg 84%
    23:00 +20°C° 0 mm 4 mps 745 mmHg 82%

    24 Enero, Viernes

    Tiempo Temperatura Precipitaciones Viento Presión Humedad
    00:00 +21°C° 0 mm 4 mps 745 mmHg 80%
    01:00 +21°C° 0 mm 4 mps 744 mmHg 78%
    02:00 +21°C° 0 mm 4 mps 744 mmHg 78%
    03:00 +20°C° 0 mm 5 mps 744 mmHg 78%
    04:00 +20°C° 0 mm 5 mps 744 mmHg 78%
    05:00 +20°C° 0 mm 5 mps 744 mmHg 78%
    06:00 +20°C° 0 mm 5 mps 745 mmHg 78%
    07:00 +21°C° 0 mm 5 mps 745 mmHg 78%
    08:00 +22°C° 0.1 mm 5 mps 745 mmHg 73%
    09:00 +23°C° 0.1 mm 5 mps 746 mmHg 69%
    10:00 +25°C° 0.1 mm 5 mps 746 mmHg 64%
    11:00 +25°C° 0 mm 5 mps 746 mmHg 64%
    12:00 +25°C° 0 mm 5 mps 745 mmHg 64%
    13:00 +25°C° 0 mm 5 mps 745 mmHg 63%
    14:00 +25°C° 0 mm 5 mps 745 mmHg 65%
    15:00 +25°C° 0 mm 5 mps 745 mmHg 66%
    16:00 +23°C° 0 mm 5 mps 744 mmHg 67%
    17:00 +23°C° 0 mm 5 mps 745 mmHg 70%
    18:00 +22°C° 0 mm 5 mps 745 mmHg 73%
    19:00 +21°C° 0 mm 5 mps 746 mmHg 77%
    20:00 +21°C° 0 mm 5 mps 746 mmHg 76%
    21:00 +21°C° 0 mm 5 mps 746 mmHg 76%
    22:00 +20°C° 0 mm 5 mps 747 mmHg 75%
    23:00 +20°C° 0 mm 5 mps 746 mmHg 75%

    25 Enero, Sábado

    Tiempo Temperatura Precipitaciones Viento Presión Humedad
    00:00 +20°C° 0 mm 6 mps 746 mmHg 75%
    01:00 +20°C° 0 mm 6 mps 745 mmHg 75%
    02:00 +20°C° 0 mm 6 mps 745 mmHg 76%
    03:00 +20°C° 0 mm 6 mps 745 mmHg 77%
    04:00 +18°C° 0 mm 7 mps 745 mmHg 78%
    05:00 +20°C° 0 mm 7 mps 745 mmHg 78%
    06:00 +20°C° 0 mm 7 mps 745 mmHg 78%
    07:00 +20°C° 0 mm 7 mps 745 mmHg 78%
    08:00 +21°C° 0 mm 7 mps 746 mmHg 74%
    09:00 +22°C° 0 mm 6 mps 746 mmHg 69%
    10:00 +23°C° 0 mm 6 mps 746 mmHg 64%
    11:00 +23°C° 0 mm 6 mps 746 mmHg 64%
    12:00 +24°C° 0 mm 6 mps 746 mmHg 64%
    13:00 +24°C° 0 mm 6 mps 745 mmHg 64%
    14:00 +23°C° 0 mm 6 mps 745 mmHg 66%
    15:00 +23°C° 0 mm 7 mps 745 mmHg 68%
    16:00 +23°C° 0 mm 7 mps 745 mmHg 69%
    17:00 +22°C° 0 mm 7 mps 745 mmHg 73%
    18:00 +21°C° 0 mm 7 mps 746 mmHg 77%
    19:00 +20°C° 0 mm 7 mps 746 mmHg 80%
    20:00 +20°C° 0 mm 6 mps 746 mmHg 82%
    21:00 +20°C° 0 mm 6 mps 746 mmHg 83%
    22:00 +19°C° 0 mm 6 mps 747 mmHg 84%
    23:00 +19°C° 0 mm 6 mps 746 mmHg 84%
    Mostrar más